EW8060 Weather Reports


time (UTC)temp
C
wind
direction
speed
KPH
gust
KPH
rain 1hr
cm
rain 24hr
cm
rain mn
cm
humidity
%
barometer
mb
20260502194422 16 135 0.0 0.0 0.00 0.00 0.00 34 1013.1
20260502193422 16 247 0.0 0.0 0.00 0.00 0.00 34 1013.1
20260502192441 16 249 0.0 0.0 0.00 0.00 0.00 36 1013.0
20260502191421 16 181 0.0 0.0 0.00 0.00 0.00 34 1013.1
20260502190421 16 121 0.0 0.0 0.00 0.00 0.00 33 1013.2
20260502185420 16 87 0.0 0.0 0.00 0.00 0.00 34 1013.4
20260502184420 16 283 0.0 0.0 0.00 0.00 0.00 40 1013.5
20260502183420 16 167 0.0 0.0 0.00 0.00 0.00 35 1013.5
20260502182419 16 50 0.0 0.0 0.00 0.00 0.00 37 1013.7
20260502181419 15 51 0.0 0.0 0.00 0.00 0.00 39 1013.8
20260502180419 15 200 0.0 0.0 0.00 0.00 0.00 40 1013.9
20260502170417 13 5 0.0 0.0 0.00 0.00 0.00 40 1014.9
20260502163416 12 49 0.0 0.0 0.00 0.00 0.00 43 1015.5
20260502162416 12 117 0.0 0.0 0.00 0.00 0.00 41 1015.5
20260502161415 13 116 0.0 0.0 0.00 0.00 0.00 41 1015.8
20260502160415 13 205 0.0 0.0 0.00 0.00 0.00 43 1015.9
20260502151413 11 67 0.0 0.0 0.00 0.00 0.00 45 1016.1
20260502150413 11 71 0.0 0.0 0.00 0.00 0.00 46 1016.1
20260502130429 8 29 0.0 0.0 0.00 0.00 0.00 55 1016.1
20260502123408 8 348 0.0 0.0 0.00 0.00 0.00 56 1015.8
20260502122407 8 117 0.0 4.8 0.00 0.00 0.00 56 1015.9
20260502121407 8 207 3.2 4.8 0.00 0.00 0.00 55 1015.7
20260502120407 8 136 0.0 3.2 0.00 0.00 0.00 55 1015.7
20260502115407 8 71 11.3 16.1 0.00 0.00 0.00 54 1015.4
20260502114406 8 31 4.8 4.8 0.00 0.00 0.00 53 1015.4
20260502113446 8 76 16.1 16.1 0.00 0.00 0.00 53 1015.1
20260502112406 8 62 1.6 4.8 0.00 0.00 0.00 53 1015.3
20260502111406 8 13 4.8 6.4 0.00 0.00 0.00 53 1015.1
20260502110405 9 74 0.0 4.8 0.00 0.00 0.00 52 1015.0
20260502105405 9 75 0.0 1.6 0.00 0.00 0.00 51 1015.0
20260502104405 9 125 9.7 9.7 0.00 0.00 0.00 50 1015.1
20260502103404 9 118 0.0 3.2 0.00 0.00 0.00 50 1015.1
20260502102404 10 71 0.0 1.6 0.00 0.00 0.00 51 1015.2
20260502101404 10 274 0.0 0.0 0.00 0.00 0.00 51 1015.2
20260502100404 10 76 0.0 0.0 0.00 0.00 0.00 51 1015.2
20260502091402 10 113 0.0 0.0 0.00 0.00 0.00 55 1015.0
20260502090422 10 104 3.2 9.7 0.00 0.00 0.00 57 1015.0
20260502071358 11 96 0.0 4.8 0.00 0.00 0.00 62 1014.7
20260502070358 11 126 1.6 4.8 0.00 0.00 0.00 61 1014.8
20260502065358 11 72 3.2 8.0 0.00 0.00 0.00 61 1014.7
20260502064357 11 91 3.2 3.2 0.00 0.00 0.00 60 1014.7
20260502063417 11 69 0.0 6.4 0.00 0.00 0.00 60 1014.8
20260502062417 11 94 0.0 0.0 0.00 0.00 0.00 60 1014.9
20260502061356 11 153 0.0 0.0 0.00 0.00 0.00 59 1015.0
20260502060416 11 111 0.0 4.8 0.00 0.00 0.00 59 1015.1
20260502055416 11 180 1.6 1.6 0.00 0.00 0.00 58 1015.1
20260502054355 12 64 1.6 11.3 0.00 0.00 0.00 58 1014.9
20260502053355 12 182 1.6 6.4 0.00 0.00 0.00 58 1014.9
20260502052354 12 147 1.6 6.4 0.00 0.00 0.00 58 1014.9
20260502051354 12 38 4.8 4.8 0.00 0.00 0.00 57 1014.9
20260502050354 12 49 8.0 8.0 0.00 0.00 0.00 57 1015.0
20260502045353 12 93 0.0 0.0 0.00 0.00 0.00 57 1015.2
20260502044353 12 246 0.0 0.0 0.00 0.00 0.00 58 1014.9
20260502043353 13 101 3.2 4.8 0.00 0.00 0.00 60 1014.9
20260502042412 13 174 3.2 3.2 0.00 0.00 0.00 60 1014.8
20260502041352 13 36 0.0 0.0 0.00 0.00 0.00 58 1014.9
20260502040352 13 95 0.0 0.0 0.00 0.00 0.00 58 1014.8
20260502035352 13 84 0.0 1.6 0.00 0.00 0.00 57 1014.8
20260502034411 13 87 0.0 3.2 0.00 0.00 0.00 57 1014.9
20260502033351 13 91 0.0 0.0 0.00 0.00 0.00 57 1014.8
20260502032350 14 86 0.0 0.0 0.00 0.00 0.00 56 1014.5
20260502031430 14 79 0.0 0.0 0.00 0.00 0.00 55 1014.3
20260502030350 14 178 0.0 0.0 0.00 0.00 0.00 54 1014.2
20260502025349 15 59 0.0 0.0 0.00 0.00 0.00 53 1014.1
20260502024349 15 53 0.0 0.0 0.00 0.00 0.00 52 1014.0
20260502023348 15 224 0.0 0.0 0.00 0.00 0.00 56 1013.8
20260502022348 15 109 0.0 1.6 0.00 0.00 0.00 59 1013.7
20260502021348 15 296 0.0 0.0 0.00 0.00 0.00 60 1013.3
20260502020348 15 296 0.0 0.0 0.00 0.00 0.00 58 1013.0
20260502015347 15 296 0.0 0.0 0.00 0.00 0.00 57 1013.1
20260502014347 15 287 0.0 0.0 0.00 0.00 0.00 57 1013.0
20260502013347 15 292 0.0 1.6 0.00 0.00 0.00 57 1013.1
20260502012346 15 284 0.0 0.0 0.00 0.00 0.00 58 1012.9
20260502011346 15 286 0.0 0.0 0.00 0.00 0.00 57 1012.8
20260502010345 15 304 0.0 3.2 0.00 0.00 0.00 57 1012.7
20260502005345 15 280 0.0 0.0 0.00 0.00 0.00 55 1012.5
20260502004345 15 292 0.0 0.0 0.00 0.00 0.00 54 1012.4
20260502003345 16 277 0.0 0.0 0.00 0.00 0.00 53 1012.4
20260502002344 16 286 0.0 0.0 0.00 0.00 0.00 53 1012.2
20260502001344 16 313 0.0 0.0 0.00 0.00 0.00 52 1012.1
20260502000403 16 318 0.0 0.0 0.00 0.00 0.00 51 1012.0
20260501235343 16 209 0.0 0.0 0.00 0.00 0.00 50 1011.5
20260501234343 16 309 0.0 0.0 0.00 0.00 0.00 50 1011.4
20260501233342 16 316 0.0 0.0 0.00 0.00 0.00 50 1011.4
20260501232342 17 292 0.0 0.0 0.00 0.00 0.00 50 1011.4
20260501231342 17 346 0.0 4.8 0.00 0.00 0.00 48 1011.4
20260501230341 17 284 4.8 4.8 0.00 0.00 0.00 48 1011.3
20260501225341 17 319 0.0 0.0 0.00 0.00 0.00 48 1011.3
20260501224341 18 310 1.6 3.2 0.00 0.00 0.00 47 1011.3
20260501223340 18 344 6.4 6.4 0.00 0.00 0.00 46 1011.3
20260501222420 18 304 1.6 1.6 0.00 0.00 0.00 46 1011.4
20260501221340 18 258 0.0 1.6 0.00 0.00 0.00 44 1011.5
20260501220339 19 355 1.6 1.6 0.00 0.00 0.00 43 1011.5
20260501215339 19 281 0.0 1.6 0.00 0.00 0.00 44 1011.7
20260501214339 19 5 1.6 8.0 0.00 0.00 0.00 43 1011.7
20260501213339 19 287 0.0 1.6 0.00 0.00 0.00 43 1011.7
20260501212338 18 315 0.0 1.6 0.00 0.00 0.00 45 1011.9
20260501211338 18 296 4.8 4.8 0.00 0.00 0.00 43 1011.9
20260501210337 18 337 4.8 6.4 0.00 0.00 0.00 43 1012.0
20260501205339 19 308 4.8 6.4 0.00 0.00 0.00 43 1012.1
20260501204336 18 10 0.0 0.0 0.00 0.00 0.00 41 1012.2
20260501203336 18 275 4.8 6.4 0.00 0.00 0.00 43 1012.2
20260501202336 18 355 0.0 0.0 0.00 0.00 0.00 43 1012.5
20260501201335 19 281 9.7 9.7 0.00 0.00 0.00 42 1012.6
20260501200335 19 314 4.8 9.7 0.00 0.00 0.00 40 1012.7
20260501195335 19 311 0.0 6.4 0.00 0.00 0.00 42 1012.9